Terug naar catalogus

COSMOS 1275 DEB

ActiefPO
NORAD 13478·DEBRIS·🇷🇺 Russia

Gelanceerd Jun 4, 1981 vanaf Plesetsk Cosmodrome

Loading…

Volgende Passages (komende 24 uur)

TLE

VersSource: Space-Track

Epoch: Sep 14, 2026, 07:20 UTC

1 13478U 81053FY  26257.30611377  .00000436  00000-0  37648-3 0  9994
2 13478  82.8631  92.6185 0096672 156.4126 324.4864 13.82220211221456

Volg COSMOS 1275 DEB in realtime met AllMySat

Download on the App Store